Regional Weather Roundup
Issued by NWS

Home | Current Version | Previous Version | Graphics & Text | Print | Product List | Glossary On
Versions: 1 2 3 4 5 6 7 8 9 10 11 12 13 14 15 16 17 18 19 20 21 22 23 24 25 26 27 28 29 30 31 32 33 34 35 36 37 38 39 40 41 42 43 44 45 46 47 48 49 50
000
ASUS43 KFSD 241802
RWRSD

WEATHER ROUNDUP FOR SOUTH DAKOTA
NATIONAL WEATHER SERVICE SIOUX FALLS SD
100 PM CDT THU JUL 24 2014

NOTE: "FAIR" INDICATES FEW OR NO CLOUDS BELOW 12,000 FEET WITH NO
SIGNIFICANT WEATHER AND/OR OBSTRUCTIONS TO VISIBILITY.


SDZ001>005-009-010-012>017-241900-
NORTHWEST AND NORTH CENTRAL SOUTH DAKOTA

CITY           SKY/WX    TMP DP  RH WIND       PRES   REMARKS
BUFFALO          N/A     79  65  62 VRB5      29.76S
FAITH            N/A     82  66  58 SE10      29.81F
MOBRIDGE       PTSUNNY   80  65  59 SE22G28   29.81F
$$

SDZ012>016-024>037-041>051-057-063-072>074-241900-
SOUTHWEST AND SOUTH CENTRAL SOUTH DAKOTA

CITY           SKY/WX    TMP DP  RH WIND       PRES   REMARKS
RAPID CTY ARPT CLOUDY    82  69  64 E6        29.81S
PIERRE         PTSUNNY   87  65  47 SE28      29.77F
CUSTER         SUNNY     89  47  23 W14G20    30.02S
ELLSWORTH AFB  CLOUDY    82  69  64 SE6       29.81S
PHILIP         SUNNY     94  63  35 SW7       29.75F HX  95
PINE RIDGE     MOSUNNY   93  57  29 W7        29.86F
WINNER         FAIR      90  66  45 S26G37    29.82F
$$

SDZ004>011-016>023-039-040-241900-
NORTHEAST SOUTH DAKOTA

CITY           SKY/WX    TMP DP  RH WIND       PRES   REMARKS
ABERDEEN       CLOUDY    69  61  75 E12G22    29.99R
WATERTOWN      CLOUDY    70  60  70 SE21G32   29.89F THUNDER HAZE
SISSETON         N/A     66  64  93 N18G24    30.10R
$$

SDZ017-020-022-023-036>040-048>070-241900-
SOUTHEAST SOUTH DAKOTA

CITY           SKY/WX    TMP DP  RH WIND       PRES   REMARKS
SIOUX FALLS    CLOUDY    67  62  84 SE17G26   29.98F
HURON          CLOUDY    76  65  68 SE21G33   29.86F
CHAMBERLAIN    PTSUNNY   79  66  63 SE22G35   29.85F
MITCHELL       CLOUDY    81  65  58 SE22G33   29.90F
YANKTON        PTSUNNY   81  64  57 SE21G30   29.98R
$$

ABBREVIATIONS USED IN REMARKS
   TC - TEMPERATURE IN CELSIUS
  WCI - WIND CHILL INDEX
   HX - HEAT INDEX
  VSB - VISIBILITY



USA.gov is the U.S. government's official web portal to all federal, state and local government web resources and services.